P/2005 J1 (McNaught)

Epoch 2012 Feb. 3.0 TT = JDT 2455960.5  

T 2012 Jan. 15.59134 TT                                 Nakano

q   1.5370471            (2000.0)            P               Q

n   0.14593814     Peri.  338.97353     -0.32456749     +0.78621144

a   3.5729217      Node   268.80449     -0.77529538     -0.53960595

e   0.5698067      Incl.   31.73379     -0.54182379     +0.30115940

P   6.75 (+/- 0.03 day)

From 94 observations 2005 May 3-Aug. 7, mean residual 0".57.

Residuals in seconds of arc 

2005/                     050505 E12  0.1+  0.5+    050616 673  0.6+  0.9+  

050503 E12  0.9+  0.7-    050505 E12  1.0+  0.5-    050616 673  0.4+  1.1+  

050503 E12  0.1+  0.5-    050505 E12  0.5+  0.3+    050616 673  0.6+  0.4+  

050503 E12  0.2-  0.6-    050505 E12  0.6-  0.5+    050616 673  0.6+  0.7+  

050503 E12 (3.1-  0.7-)   050505 E12  0.3+  0.1+    050617 213  0.0   0.6-  

050503 E12  0.2+  0.5+    050505 E12  0.6-  0.6+    050617 213  0.1-  0.3-  

050503 E12  0.0   0.5+    050505 474  0.2-  0.1+    050617 213  0.2+  0.1-  

050503 E12  0.1-  0.1+    050505 474  0.5+  0.2+    050618 170  0.8-  0.8-  

050503 E12  0.4+  0.1+    050508 651  0.4-  0.2-    050618 170  0.4-  0.1+  

050503 E12  0.5+  0.6+    050508 651  0.2-  1.0+    050625 213  0.1+  0.3+  

050503 E12  0.3-  0.2-    050508 651  0.1+  1.9-    050625 213  0.2+  0.2+  

050504 854 (2.9+  0.3-)   050510 372 (2.9-  2.4-)   050625 213  0.1+  0.1+  

050504 854  0.9+  0.0     050512 372  0.6-  0.2+    050628 704  0.2+  0.8+  

050504 854  0.4-  0.3-    050513 673  0.6+  0.1-    050628 704  0.8-  0.2-  

050504 474  0.6-  0.2-    050513 673  0.4+  0.2+    050628 704  0.4-  0.2+  

050504 474  0.1-  0.1-    050513 673  0.1+  0.1+    050628 704  0.5-  0.1+  

050504 474  0.1+  0.1+    050513 673  0.5+  0.2+    050628 048 (2.2+  0.4+) 

050504 474  0.3-  0.2-    050515 372  1.8+  0.8-    050628 048  1.1+  0.1-  

050504 E12  0.3-  0.8+    050515 360  0.4-  0.3-    050628 048  0.3-  1.4-  

050504 E12  0.1-  0.8+    050515 360  0.3-  0.1+    050702 213  0.2-  0.4+  

050504 E12  0.2+  0.1+    050515 360  0.5-  0.0     050702 213  0.3-  0.6-  

050504 E12  0.3-  0.2-    050516 372  0.1+  0.1-    050703 413  0.5+  0.3+  

050504 E12  0.0   0.3-    050529 213  0.4-  0.8-    050705 147 (2.7-  2.2-) 

050504 E12  0.1-  0.6+    050529 213  0.4-  0.1-    050705 147  1.0+  1.1-  

050504 E12  1.1+  0.9-    050529 213  0.2-  0.0     050705 147  1.3-  0.5+  

050504 E12  0.6-  0.5-    050604 703 (3.5-  1.7-)   050705 147 (3.1-  2.1-) 

050504 E12  0.2-  0.0     050604 703 (2.4-  1.0-)   050709 673  0.6+  0.8+  

050504 E12  0.4-  0.1-    050604 703  1.3-  1.2-    050709 673  0.4+  0.5+  

050504 E12  0.2-  0.4+    050605 213  0.6+  0.6-    050709 673  0.3+  0.4+  

050504 E12  0.1+  0.1+    050605 213  0.5+  0.5-    050725 118  0.1-  0.9-  

050504 E12  0.6-  1.0+    050609 704  1.1-  0.2+    050725 118  1.6-  1.1-  

050505 474  0.4-  0.2-    050609 704  0.3+  0.3+    050807 J95  1.3+  1.2+  

050505 474  0.1-  0.2-    050609 704  0.5-  0.3+    050807 J95  0.2-  0.5-  

050505 474  0.0   0.1+    050609 704  0.1+  0.2-    050809 A33 (0.1+  9.0-) 

050505 E12  0.2-  0.4-    050609 704  0.2+  0.8+                            





NAKANO

         **** Don't distribute anyone except personal use only ****

                (C) Copyright 2006 OAA/ComputingSection

write mail from CFAD0::NAKANO on 2006-12-06 04:13:52(JST).

 

    P/2005 J1 (McNaught)                                                  

T 2005 Apr. 17.30811 TT                                 Nakano

q   1.5301577            (2000.0)            P               Q

n   0.14633593     Peri.  338.92427     -0.32453912     +0.78589526

a   3.5664439      Node   268.84139     -0.77495606     -0.53998200

e   0.5709570      Incl.   31.76634     -0.54232597     +0.30131061

P   6.74 (+/- 0.12 day)

From 73 observations 2005 May 3-June 18.



NAKANO

         **** Don't distribute anyone except personal use only ****

                (C) Copyright 2005 OAA/ComputingSection

write mail from CFAD0::NAKANO on 2005-07-03 02:21:28(JST).



    P/2005 J1 (McNaught)                                                  

T 2005 Apr. 17.29450 TT                                 Nakano

q   1.5300123            (2000.0)            P               Q

n   0.14648075     Peri.  338.91439     -0.32474288     +0.78585849

a   3.5640929      Node   268.83814     -0.77485575     -0.54013128

e   0.5707148      Incl.   31.76161     -0.54234732     +0.30113890

P   6.73 (+/- 0.50 day)

From 56 observations 2005 May 3-29.



NAKANO

         **** Don't distribute anyone except personal use only ****

                (C) Copyright 2005 OAA/ComputingSection

write mail from CFAD0::NAKANO on 2005-06-05 05:59:11(JST).

 



◎P/2005 J1の軌道と予報位置です



  久万の中村彰正氏から,5月15日の観測が報告されました.氏のCCD全光度は

18.3等でした.



    P/2005 J1 (McNaught)                                                  

T 2005 Apr. 17.29449 TT                                 Nakano

q   1.5299648            (2000.0)            P               Q

n   0.14659374     Peri.  338.91480     -0.32476619     +0.78585408

a   3.5622612      Node   268.83645     -0.77485191     -0.54014424

e   0.5705074      Incl.   31.76110     -0.54233887     +0.30112716

P   6.72 (+/- 3.39 day)

From 50 observations 2005 May 3-15.

 

Date/        TT  R.A.(2000) Decl.     Delta   r     Daily motion  Mag.  Moon Age

              h    h  m       。  ,                      ,  / PA 。  m1      。

2005 May  15 18  20 26.75  -21 49.2   0.876  1.559    38.1 /  12  18.1  165  .44

          16 18  20 27.31  -21 11.9   0.870  1.561    38.3 /  11  18.1  154  .54

          17 18  20 27.83  -20 34.3   0.865  1.563    38.5 /  10  18.1  142  .63

          18 18  20 28.29  -19 56.3   0.859  1.565    38.7 /   9  18.1  130  .72

          19 18  20 28.70  -19 18.1   0.854  1.567    38.9 /   8  18.1  118  .81

          20 18  20 29.06  -18 39.6   0.849  1.569    39.1 /   6  18.1  105  .88

          21 18  20 29.37  -18 00.8   0.844  1.572    39.3 /   5  18.1   92  .94

          22 18  20 29.62  -17 21.7   0.839  1.574    39.4 /   4  18.1   78  .98

          23 18  20 29.83  -16 42.3   0.834  1.577    39.6 /   3  18.1   65 1.00

          24 18  20 29.99  -16 02.8   0.829  1.579    39.8 /   2  18.1   51  .99

          25 18  20 30.09  -15 22.9   0.825  1.582    40.0 /   1  18.1   37  .95

          26 18  20 30.14  -14 42.9   0.820  1.585    40.2 /   0  18.1   23  .88

          27 18  20 30.14  -14 02.7   0.816  1.587    40.4 / 359  18.1   12  .80

          28 18  20 30.10  -13 22.2   0.812  1.590    40.6 / 358  18.1   13  .70

          29 18  20 29.99  -12 41.7   0.808  1.593    40.8 / 357  18.1   24  .58

          30 18  20 29.84  -12 00.9   0.805  1.596    41.0 / 356  18.1   37  .47

          31 18  20 29.64  -11 20.1   0.801  1.599    41.1 / 355  18.1   50  .36

     June  1 18  20 29.39  -10 39.1   0.798  1.602    41.3 / 354  18.1   63  .26

           2 18  20 29.08  -09 58.1   0.794  1.605    41.4 / 353  18.1   76  .17

           3 18  20 28.73  -09 17.0   0.791  1.608    41.6 / 352  18.1   89  .10

           4 18  20 28.32  -08 35.8   0.789  1.611    41.7 / 351  18.1  101  .05

           5 18  20 27.87  -07 54.7   0.786  1.614    41.8 / 350  18.1  113  .01

           6 18  20 27.37  -07 13.6   0.783  1.618    41.9 / 349  18.1  125  .00

           7 18  20 26.81  -06 32.5   0.781  1.621    42.0 / 348  18.1  136  .01

           8 18  20 26.22  -05 51.5   0.779  1.624    42.0 / 347  18.1  146  .03

           9 18  20 25.57  -05 10.6   0.777  1.628    42.0 / 346  18.1  155  .08

          10 18  20 24.88  -04 29.9   0.775  1.631    42.1 / 345  18.1  160  .13

          11 18  20 24.14  -03 49.3   0.774  1.635    42.1 / 344  18.1  159  .20

          12 18  20 23.36  -03 08.9   0.773  1.639    42.0 / 343  18.1  153  .29

          13 18  20 22.54  -02 28.7   0.772  1.642    42.0 / 342  18.1  144  .37

          14 18  20 21.67  -01 48.8   0.771  1.646    41.9 / 341  18.1  133  .47

          15 18  20 20.76  -01 09.2   0.770  1.650    41.8 / 340  18.1  122  .57

          16 18  20 19.82  -00 29.9   0.770  1.654    41.7 / 339  18.1  111  .67

          17 18  20 18.83  +00 09.1   0.770  1.657    41.5 / 338  18.1   99  .76

          18 18  20 17.81  +00 47.6   0.770  1.661    41.3 / 337  18.1   86  .85

          19 18  20 16.75  +01 25.8   0.770  1.665    41.1 / 336  18.1   74  .92

          20 18  20 15.65  +02 03.5   0.771  1.669    40.9 / 336  18.2   61  .97

          21 18  20 14.53  +02 40.7   0.771  1.673    40.6 / 335  18.2   49 1.00

          22 18  20 13.37  +03 17.4   0.772  1.678    40.3 / 334  18.2   38  .99

          23 18  20 12.18  +03 53.6   0.773  1.682    40.0 / 333  18.2   31  .96

          24 18  20 10.96  +04 29.2   0.775  1.686    39.6 / 332  18.2   29  .90

          25 18  20 09.72  +05 04.2   0.776  1.690    39.3 / 331  18.2   34  .82

          26 18  20 08.45  +05 38.5   0.778  1.694    38.9 / 330  18.2   43  .72

          27 18  20 07.16  +06 12.3   0.780  1.699    38.4 / 329  18.3   54  .61

          28 18  20 05.84  +06 45.3   0.783  1.703    38.0 / 328  18.3   65  .50

          29 18  20 04.51  +07 17.7   0.785  1.708    37.5 / 328  18.3   77  .39

          30 18  20 03.16  +07 49.3   0.788  1.712    37.0 / 327  18.3   88  .29

     July  1 18  20 01.79  +08 20.2   0.791  1.717    36.4 / 326  18.3   99  .21

NAKANO

         **** Don't distribute anyone except personal use only ****

                (C) Copyright 2005 OAA/ComputingSection

write mail from CFAD0::NAKANO on 2005-05-18 06:31:18(JST).

 

戻ります。